FW6802 Weather Reports


Display with metric or nautical units.
time (UTC)temp
F
wind
direction
speed
MPH
gust
MPH
rain 1hr
in
rain 24hr
in
rain mn
in
humidity
%
barometer
mb
20260831053606 76 182 2.0 12.0 0.00 0.00 0.00 80 1015.3
20260831052550 76 182 1.0 12.0 0.00 0.00 0.00 80 1015.0
20260831052050 76 179 2.0 12.0 0.00 0.00 0.00 80 1015.1
20260831051035 76 215 1.0 12.0 0.00 0.00 0.00 80 1015.5
20260831050535 76 194 0.0 12.0 0.00 0.00 0.00 80 1015.3
20260831050034 77 163 1.0 12.0 0.00 0.00 0.00 80 1015.0
20260831044502 77 177 1.0 12.0 0.00 0.00 0.00 80 1015.1
20260831044002 77 169 2.0 12.0 0.00 0.00 0.00 81 1015.1
20260831043502 77 175 2.0 12.0 0.00 0.00 0.00 81 1015.1
20260831043002 76 163 3.0 12.0 0.00 0.00 0.00 81 1014.8
20260831042502 76 178 3.0 12.0 0.00 0.00 0.00 82 1015.1
20260831042001 76 163 2.0 12.0 0.00 0.00 0.00 82 1015.1
20260831041501 76 162 0.0 12.0 0.00 0.00 0.00 82 1014.7
20260831041001 76 162 1.0 12.0 0.00 0.00 0.00 82 1014.9
20260831040500 77 149 1.0 12.0 0.00 0.00 0.00 82 1014.9
20260831035959 77 142 2.0 12.0 0.00 0.00 0.00 82 1014.9
20260831035458 77 145 2.0 12.0 0.00 0.00 0.00 83 1014.8
20260831034958 77 149 1.0 12.0 0.00 0.00 0.00 83 1014.9
20260831034458 77 142 0.0 12.0 0.00 0.00 0.00 83 1015.0
20260831033958 77 144 1.0 12.0 0.00 0.00 0.00 82 1015.2
20260831033457 77 145 1.0 12.0 0.00 0.00 0.00 82 1015.0
20260831032956 77 148 2.0 12.0 0.00 0.00 0.00 82 1015.2
20260831032456 77 144 1.0 12.0 0.00 0.00 0.00 82 1015.1
20260831031955 77 141 2.0 12.0 0.00 0.00 0.00 81 1015.3
20260831031454 78 139 2.0 12.0 0.00 0.00 0.00 81 1014.9
20260831030954 78 141 1.0 12.0 0.00 0.00 0.00 81 1015.0
20260831030454 78 143 2.0 12.0 0.00 0.00 0.00 80 1015.2
20260831025953 78 149 1.0 12.0 0.00 0.00 0.00 80 1015.0
20260831025452 78 151 1.0 12.0 0.00 0.00 0.00 80 1015.1
20260831024435 78 145 2.0 12.0 0.00 0.00 0.00 80 1015.1
20260831023934 78 146 2.0 12.0 0.00 0.00 0.00 79 1015.0
20260831023433 78 145 2.0 12.0 0.00 0.00 0.00 79 1015.1
20260831021902 79 145 2.0 12.0 0.00 0.00 0.00 79 1015.2
20260831021402 79 141 2.0 12.0 0.00 0.00 0.00 78 1015.2
20260831020901 79 139 2.0 12.0 0.00 0.00 0.00 79 1015.3
20260831020401 79 133 1.0 12.0 0.00 0.00 0.00 78 1015.2
20260831015345 79 151 0.0 12.0 0.00 0.00 0.00 78 1014.9
20260831014844 79 151 1.0 12.0 0.00 0.00 0.00 77 1015.1
20260831014343 79 152 0.0 12.0 0.00 0.00 0.00 77 1015.1
20260831013842 79 152 0.0 12.0 0.00 0.00 0.00 78 1015.1
20260831013342 80 152 0.0 12.0 0.00 0.00 0.00 77 1014.8
20260831012842 80 152 0.0 12.0 0.00 0.00 0.00 77 1014.6
20260831012341 80 152 0.0 12.0 0.00 0.00 0.00 76 1014.8
20260831011840 80 152 0.0 12.0 0.00 0.00 0.00 76 1014.8
20260831011339 80 152 0.0 12.0 0.00 0.00 0.00 75 1014.5
20260831010838 80 163 2.0 12.0 0.00 0.00 0.00 75 1014.5
20260831005823 80 211 0.0 12.0 0.00 0.00 0.00 76 1014.7
20260831004252 81 211 0.0 12.0 0.00 0.00 0.00 74 1014.6
20260831003751 82 211 0.0 12.0 0.00 0.00 0.00 74 1014.9
20260831003251 82 211 0.0 12.0 0.00 0.00 0.00 72 1014.5
20260831002750 83 211 0.0 12.0 0.00 0.00 0.00 71 1014.4
20260831002249 83 211 0.0 12.0 0.00 0.00 0.00 70 1014.6
20260831001749 84 211 0.0 12.0 0.00 0.00 0.00 68 1014.7
20260831001248 84 211 0.0 12.0 0.00 0.00 0.00 67 1014.4
20260831000747 84 211 0.0 12.0 0.00 0.00 0.00 65 1014.4
20260831000248 85 211 0.0 12.0 0.00 0.00 0.00 64 1014.3
20260830235746 85 211 0.0 12.0 0.00 0.00 0.00 63 1014.4
20260830235245 86 211 1.0 12.0 0.00 0.00 0.00 63 1014.3
20260830234745 86 208 2.0 12.0 0.00 0.00 0.00 62 1014.7
20260830234244 86 207 1.0 12.0 0.00 0.00 0.00 62 1014.7
20260830233228 86 207 2.0 12.0 0.00 0.00 0.00 61 1014.6
20260830232728 86 213 1.0 12.0 0.00 0.00 0.00 61 1012.3
20260830231712 86 214 2.0 12.0 0.00 0.00 0.00 61 1013.5
20260830231211 86 223 2.0 12.0 0.00 0.00 0.00 61 1014.0
20260830230710 86 220 2.0 12.0 0.00 0.00 0.00 61 1014.4
20260830230210 86 201 2.0 12.0 0.00 0.00 0.00 61 1014.3
20260830225709 86 219 2.0 12.0 0.00 0.00 0.00 62 1014.5
20260830225209 86 215 2.0 12.0 0.00 0.00 0.00 62 1014.5
20260830224709 87 207 2.0 12.0 0.00 0.00 0.00 61 1014.8
20260830224208 87 223 2.0 12.0 0.00 0.00 0.00 60 1014.3
20260830223152 88 215 2.0 12.0 0.00 0.00 0.00 59 1014.3
20260830222651 88 218 3.0 12.0 0.00 0.00 0.00 58 1014.4
20260830222150 88 223 4.0 12.0 0.00 0.00 0.00 57 1014.6
20260830221650 89 207 3.0 12.0 0.00 0.00 0.00 57 1014.6
20260830220635 89 194 4.0 12.0 0.00 0.00 0.00 56 1014.3
20260830215619 89 195 6.0 12.0 0.00 0.00 0.00 56 1014.3
20260830215118 89 194 5.0 12.0 0.00 0.00 0.00 56 1014.5
20260830214617 88 182 3.0 12.0 0.00 0.00 0.00 56 1014.5
20260830214117 89 197 5.0 13.0 0.00 0.00 0.00 57 1014.8
20260830213617 88 224 3.0 13.0 0.00 0.00 0.00 58 1015.1
20260830213116 87 218 2.0 13.0 0.00 0.00 0.00 58 1015.8
20260830212616 87 195 3.0 13.0 0.00 0.00 0.00 59 1014.9
20260830211045 86 184 4.0 13.0 0.00 0.00 0.00 59 1014.4
20260830210545 86 199 4.0 13.0 0.00 0.00 0.00 60 1014.3
20260830210044 86 170 3.0 13.0 0.00 0.00 0.00 59 1014.5
20260830205544 86 192 4.0 12.0 0.00 0.00 0.00 59 1014.6
20260830205044 86 179 4.0 12.0 0.00 0.00 0.00 60 1014.5
20260830204544 86 186 5.0 12.0 0.00 0.00 0.00 59 1014.2
20260830204044 86 179 4.0 12.0 0.00 0.00 0.00 60 1014.4
20260830203544 86 175 5.0 12.0 0.00 0.00 0.00 60 1014.5
20260830203044 87 179 4.0 12.0 0.00 0.00 0.00 59 1014.8
20260830202544 87 178 5.0 13.0 0.00 0.00 0.00 59 1014.9
20260830201528 87 187 6.0 11.0 0.00 0.00 0.00 56 1014.8
20260830201028 87 197 5.0 11.0 0.00 0.00 0.00 58 1015.1
20260830200528 87 183 4.0 11.0 0.00 0.00 0.00 61 1015.3
20260830195512 86 174 5.0 11.0 0.00 0.00 0.00 60 1015.6
20260830195012 87 181 3.0 11.0 0.00 0.00 0.00 59 1015.3
20260830194512 87 173 3.0 11.0 0.00 0.00 0.00 58 1015.4
20260830194012 87 184 4.0 11.0 0.00 0.00 0.00 57 1015.4
20260830193511 87 186 3.0 11.0 0.00 0.00 0.00 57 1015.5
20260830193011 87 155 3.0 11.0 0.00 0.00 0.00 57 1015.5
20260830192511 88 187 3.0 11.0 0.00 0.00 0.00 57 1015.8
20260830192011 88 191 3.0 11.0 0.00 0.00 0.00 56 1015.9
20260830190955 89 180 4.0 11.0 0.00 0.00 0.00 56 1016.2
20260830190455 88 183 3.0 11.0 0.00 0.00 0.00 57 1016.3
20260830185954 88 195 3.0 11.0 0.00 0.00 0.00 56 1016.4
20260830185454 88 187 2.0 11.0 0.00 0.00 0.00 56 1016.3
20260830184954 88 219 2.0 11.0 0.00 0.00 0.00 56 1016.4
20260830184454 88 176 2.0 11.0 0.00 0.00 0.00 56 1016.5
20260830183953 87 168 2.0 11.0 0.00 0.00 0.00 57 1016.7
20260830183453 87 157 1.0 11.0 0.00 0.00 0.00 57 1017.0
20260830182953 86 198 2.0 11.0 0.00 0.00 0.00 60 1016.9
20260830181937 86 89 0.0 11.0 0.00 0.00 0.00 63 1016.4
20260830181437 86 130 0.0 11.0 0.00 0.00 0.00 62 1016.7
20260830180421 85 57 1.0 11.0 0.00 0.00 0.00 64 1017.0
20260830175921 85 48 2.0 11.0 0.00 0.00 0.00 63 1016.8
20260830175421 85 87 1.0 11.0 0.00 0.00 0.00 64 1017.0
20260830174406 85 69 1.0 11.0 0.00 0.00 0.00 65 1017.1
20260830173906 85 69 1.0 11.0 0.00 0.00 0.00 64 1017.2
20260830173406 85 56 1.0 11.0 0.00 0.00 0.00 63 1017.2
20260830172351 85 158 1.0 11.0 0.00 0.00 0.00 61 1017.5
20260830171849 85 199 0.0 11.0 0.00 0.00 0.00 61 1017.5
20260830171349 85 199 0.0 11.0 0.00 0.00 0.00 61 1017.7
20260830170848 85 176 1.0 11.0 0.00 0.00 0.00 62 1017.6
20260830170347 84 165 2.0 11.0 0.00 0.00 0.00 62 1017.5
20260830165847 84 188 1.0 11.0 0.00 0.00 0.00 62 1017.6
20260830165346 84 191 2.0 11.0 0.00 0.00 0.00 62 1017.4
20260830164846 84 191 2.0 11.0 0.00 0.00 0.00 62 1017.4
20260830164345 84 186 2.0 11.0 0.00 0.00 0.00 61 1017.6
20260830163328 84 185 1.0 11.0 0.00 0.00 0.00 62 1018.1
20260830162828 85 217 1.0 11.0 0.00 0.00 0.00 62 1017.6
20260830162328 85 212 2.0 11.0 0.00 0.00 0.00 61 1017.7
20260830161827 85 221 2.0 11.0 0.00 0.00 0.00 61 1017.9
20260830161326 85 203 2.0 11.0 0.00 0.00 0.00 60 1017.6
20260830160826 84 238 1.0 11.0 0.00 0.00 0.00 61 1017.7
20260830160326 84 232 2.0 11.0 0.00 0.00 0.00 62 1017.6
20260830155826 84 216 1.0 11.0 0.00 0.00 0.00 63 1017.7
20260830155327 83 218 2.0 11.0 0.00 0.00 0.00 63 1018.0
20260830154827 84 224 2.0 11.0 0.00 0.00 0.00 64 1017.7
20260830154326 84 253 2.0 11.0 0.00 0.00 0.00 63 1017.5
20260830153826 84 205 1.0 11.0 0.00 0.00 0.00 63 1017.8
20260830153325 84 217 3.0 11.0 0.00 0.00 0.00 61 1017.4
20260830152824 84 213 2.0 11.0 0.00 0.00 0.00 63 1017.6
20260830152324 83 197 2.0 11.0 0.00 0.00 0.00 65 1017.4
20260830151824 83 196 2.0 11.0 0.00 0.00 0.00 66 1017.7
20260830151323 82 211 2.0 11.0 0.00 0.00 0.00 67 1017.0
20260830150823 81 210 2.0 11.0 0.00 0.00 0.00 68 1017.2
20260830145809 81 237 1.0 11.0 0.00 0.00 0.00 67 1016.8
20260830145309 81 202 4.0 11.0 0.00 0.00 0.00 68 1016.7
20260830144809 81 231 4.0 11.0 0.00 0.00 0.00 68 1016.9
20260830144309 81 189 3.0 11.0 0.00 0.00 0.00 68 1017.0
20260830143252 80 200 4.0 11.0 0.00 0.00 0.00 69 1016.5
20260830142751 79 220 3.0 11.0 0.00 0.00 0.00 70 1016.9
20260830142250 79 202 2.0 11.0 0.00 0.00 0.00 70 1016.3
20260830141749 79 213 4.0 11.0 0.00 0.00 0.00 69 1016.3
20260830141249 79 189 3.0 11.0 0.00 0.00 0.00 69 1016.3
20260830135716 78 206 4.0 11.0 0.00 0.00 0.00 72 1016.2
20260830135216 78 179 3.0 11.0 0.00 0.00 0.00 73 1016.3
20260830134715 77 182 3.0 11.0 0.00 0.00 0.00 73 1016.3
20260830133700 76 194 4.0 11.0 0.00 0.00 0.00 74 1016.3
20260830133200 76 188 3.0 11.0 0.00 0.00 0.00 75 1016.3
20260830132659 75 197 4.0 11.0 0.00 0.00 0.00 75 1016.0
20260830132200 75 185 2.0 11.0 0.00 0.00 0.00 76 1016.2
20260830131659 74 195 2.0 11.0 0.00 0.00 0.00 77 1016.4
20260830131200 74 176 0.0 11.0 0.00 0.00 0.00 78 1016.3
20260830130659 73 180 2.0 11.0 0.00 0.00 0.00 79 1016.1
20260830130158 73 160 2.0 11.0 0.00 0.00 0.00 79 1016.1
20260830125657 72 176 2.0 11.0 0.00 0.00 0.00 80 1016.3
20260830124639 71 167 2.0 11.0 0.00 0.00 0.00 81 1016.2
20260830124139 71 167 1.0 11.0 0.00 0.00 0.00 82 1016.3
20260830123638 71 153 1.0 11.0 0.00 0.00 0.00 82 1016.0
20260830122620 70 124 0.0 11.0 0.00 0.00 0.00 83 1016.3
20260830122120 70 94 0.0 11.0 0.00 0.00 0.00 83 1016.4
20260830121619 70 94 0.0 11.0 0.00 0.00 0.00 83 1016.1
20260830121117 69 92 0.0 11.0 0.00 0.00 0.00 84 1016.0
20260830120617 69 50 0.0 11.0 0.00 0.00 0.00 84 1016.3
20260830120117 69 50 0.0 11.0 0.00 0.00 0.00 84 1016.4
20260830115615 69 49 0.0 11.0 0.00 0.00 0.00 84 1016.2
20260830115115 69 43 0.0 11.0 0.00 0.00 0.00 84 1016.2
20260830114615 69 135 0.0 11.0 0.00 0.00 0.00 84 1016.0
20260830114115 69 135 0.0 11.0 0.00 0.00 0.00 84 1016.5
20260830113058 69 143 0.0 11.0 0.00 0.00 0.00 83 1016.5
20260830112557 69 143 0.0 11.0 0.00 0.00 0.00 83 1016.3
20260830111541 69 143 0.0 11.0 0.00 0.00 0.00 83 1016.2
20260830111040 69 154 0.0 11.0 0.00 0.00 0.00 83 1016.0
20260830110539 69 153 0.0 11.0 0.00 0.00 0.00 83 1015.9
20260830110039 69 140 1.0 11.0 0.00 0.00 0.00 83 1015.8
20260830105539 69 135 1.0 11.0 0.00 0.00 0.00 83 1015.7
20260830105038 69 132 0.0 11.0 0.00 0.00 0.00 83 1015.7
20260830104538 69 136 2.0 11.0 0.00 0.00 0.00 83 1015.7
20260830104038 69 142 3.0 11.0 0.00 0.00 0.00 83 1015.7
20260830103538 69 146 1.0 11.0 0.00 0.00 0.00 83 1015.8
20260830103038 69 152 0.0 11.0 0.00 0.00 0.00 84 1015.8
20260830102537 68 160 0.0 11.0 0.00 0.00 0.00 84 1015.8
20260830102037 68 161 0.0 11.0 0.00 0.00 0.00 84 1015.7
20260830101537 68 161 1.0 11.0 0.00 0.00 0.00 84 1015.7
20260830101036 68 164 0.0 11.0 0.00 0.00 0.00 84 1015.7
20260830100021 68 164 1.0 11.0 0.00 0.00 0.00 84 1015.7
20260830095521 68 164 1.0 11.0 0.00 0.00 0.00 84 1015.7
20260830095020 68 161 2.0 11.0 0.00 0.00 0.00 84 1015.5
20260830094519 68 161 2.0 11.0 0.00 0.00 0.00 84 1015.9
20260830094019 68 156 2.0 11.0 0.00 0.00 0.00 84 1015.8
20260830093518 68 149 1.0 11.0 0.00 0.00 0.00 84 1015.8
20260830093019 68 149 1.0 11.0 0.00 0.00 0.00 84 1015.4
20260830092517 68 148 1.0 11.0 0.00 0.00 0.00 84 1015.7
20260830092017 68 147 1.0 11.0 0.00 0.00 0.00 84 1015.6
20260830091516 68 144 0.0 11.0 0.00 0.00 0.00 84 1015.7
20260830091015 68 143 0.0 11.0 0.00 0.00 0.00 83 1015.8
20260830090514 68 143 0.0 11.0 0.00 0.00 0.00 83 1015.9
20260830090013 69 143 0.0 11.0 0.00 0.00 0.00 82 1015.9
20260830085513 69 143 0.0 11.0 0.00 0.00 0.00 81 1016.0
20260830085012 69 143 1.0 11.0 0.00 0.00 0.00 81 1015.9
20260830084512 69 138 2.0 11.0 0.00 0.00 0.00 81 1015.8
20260830084011 69 141 1.0 11.0 0.00 0.00 0.00 81 1015.7
20260830083511 69 149 1.0 11.0 0.00 0.00 0.00 81 1016.0
20260830083010 69 159 1.0 11.0 0.00 0.00 0.00 81 1016.1
20260830081439 69 147 1.0 11.0 0.00 0.00 0.00 81 1015.8
20260830080939 69 153 1.0 11.0 0.00 0.00 0.00 81 1015.8
20260830080438 69 146 0.0 11.0 0.00 0.00 0.00 81 1015.8
20260830075937 69 149 0.0 11.0 0.00 0.00 0.00 81 1016.3
20260830074921 69 162 0.0 11.0 0.00 0.00 0.00 81 1015.9
20260830074420 69 137 3.0 11.0 0.00 0.00 0.00 81 1016.0
20260830073403 70 138 0.0 11.0 0.00 0.00 0.00 81 1016.1
20260830072903 70 139 1.0 11.0 0.00 0.00 0.00 80 1016.2
20260830072403 70 144 1.0 11.0 0.00 0.00 0.00 80 1016.0
20260830071902 70 145 1.0 11.0 0.00 0.00 0.00 81 1016.4
20260830071402 70 143 2.0 11.0 0.00 0.00 0.00 80 1016.2
20260830070902 70 188 0.0 11.0 0.00 0.00 0.00 80 1016.4
20260830070402 70 188 0.0 11.0 0.00 0.00 0.00 80 1016.4
20260830065901 70 188 1.0 11.0 0.00 0.00 0.00 80 1016.2
20260830065401 70 176 2.0 11.0 0.00 0.00 0.00 81 1015.9
20260830064345 70 173 2.0 11.0 0.00 0.00 0.00 80 1016.3
20260830063845 70 158 1.0 11.0 0.00 0.00 0.00 80 1016.5
20260830063344 70 158 0.0 11.0 0.00 0.00 0.00 80 1016.6
20260830062843 70 158 1.0 11.0 0.00 0.00 0.00 80 1016.6
20260830062342 70 158 2.0 11.0 0.00 0.00 0.00 80 1016.7
20260830061842 70 146 0.0 11.0 0.00 0.00 0.00 79 1016.4
20260830061342 70 146 0.0 11.0 0.00 0.00 0.00 79 1016.7
20260830060841 71 146 1.0 11.0 0.00 0.00 0.00 78 1016.6
20260830055825 70 146 0.0 11.0 0.00 0.00 0.00 79 1016.8
20260830055325 70 146 0.0 11.0 0.00 0.00 0.00 79 1016.8
20260830054825 70 149 0.0 11.0 0.00 0.00 0.00 79 1016.8
20260830054325 71 149 0.0 11.0 0.00 0.00 0.00 78 1016.7